カタログに戻る

ARIANE 5 R/B

運用中HEO
NORAD 39235·ROCKET BODY·🇫🇷 France

打ち上げ Aug 29, 2013 から Guiana Space Centre

Loading…

次のパス (今後24時間)

TLE

最新Source: Space-Track

元期: Sep 14, 2026, 17:41 UTC

1 39235U 13044C   26257.73743126  .00001781  00000-0  54369-3 0  9996
2 39235   3.6059 105.9719 7005193 155.2097 268.4843  2.62961402116356

AllMySatでARIANE 5 R/Bをリアルタイム追跡

Download on the App Store